When you browse on this site, cookies collect data to enhance your experience and personalize the content and advertising you see.
Visit our Privacy Policy to learn more. By continuing to use the site, you agree to this use of cookies and data.
  • In Denmark
  • List of Countries
  • For 7 days
  • Water Temperature
  • Satellite Maps
  • Weather Map
  • Weather Widgets
  • user-avatar
    Login

    Hourly Weather Maracay

    Today, 10 December, Monday

    Time Temperature Precipitation Wind Pressure Humidity
    00:00 +20°C° 0 mm 2 mps 712 mmHg 87%
    01:00 +20°C° 0 mm 2 mps 712 mmHg 88%
    02:00 +20°C° 0 mm 2 mps 712 mmHg 87%
    03:00 +20°C° 0 mm 2 mps 712 mmHg 87%
    04:00 +19°C° 0 mm 2 mps 712 mmHg 87%
    05:00 +21°C° 0 mm 1 mps 713 mmHg 84%
    06:00 +22°C° 0 mm 1 mps 713 mmHg 81%
    07:00 +23°C° 0 mm 1 mps 714 mmHg 78%
    08:00 +25°C° 0 mm 2 mps 714 mmHg 70%
    09:00 +27°C° 0 mm 2 mps 714 mmHg 63%
    10:00 +29°C° 0 mm 2 mps 715 mmHg 55%
    11:00 +29°C° 0 mm 2 mps 714 mmHg 54%
    12:00 +30°C° 0 mm 3 mps 713 mmHg 53%
    13:00 +30°C° 0 mm 3 mps 713 mmHg 52%
    14:00 +29°C° 0 mm 3 mps 712 mmHg 55%
    15:00 +29°C° 0 mm 2 mps 712 mmHg 57%
    16:00 +28°C° 0 mm 2 mps 711 mmHg 59%
    17:00 +27°C° 0 mm 2 mps 711 mmHg 65%
    18:00 +25°C° 0 mm 2 mps 712 mmHg 71%
    19:00 +23°C° 0 mm 2 mps 712 mmHg 77%
    20:00 +23°C° 0 mm 2 mps 712 mmHg 80%
    21:00 +23°C° 0 mm 2 mps 713 mmHg 82%
    22:00 +21°C° 0 mm 2 mps 713 mmHg 85%
    23:00 +21°C° 0 mm 2 mps 713 mmHg 86%

    Tomorrow, 11 December, Tuesday

    Time Temperature Precipitation Wind Pressure Humidity
    00:00 +21°C° 0 mm 2 mps 713 mmHg 87%
    01:00 +21°C° 0 mm 2 mps 712 mmHg 88%
    02:00 +20°C° 0 mm 2 mps 712 mmHg 87%
    03:00 +20°C° 0 mm 2 mps 712 mmHg 87%
    04:00 +21°C° 0 mm 1 mps 712 mmHg 87%
    05:00 +21°C° 0 mm 2 mps 713 mmHg 83%
    06:00 +23°C° 0 mm 2 mps 713 mmHg 80%
    07:00 +23°C° 0 mm 2 mps 714 mmHg 76%
    08:00 +25°C° 0 mm 2 mps 714 mmHg 69%
    09:00 +27°C° 0 mm 2 mps 715 mmHg 62%
    10:00 +30°C° 0 mm 2 mps 715 mmHg 55%
    11:00 +30°C° 0 mm 2 mps 714 mmHg 54%
    12:00 +30°C° 0 mm 3 mps 713 mmHg 54%
    13:00 +31°C° 0 mm 3 mps 712 mmHg 53%
    14:00 +30°C° 0 mm 3 mps 712 mmHg 57%
    15:00 +29°C° 0 mm 3 mps 712 mmHg 61%
    16:00 +29°C° 0 mm 2 mps 711 mmHg 65%
    17:00 +27°C° 0 mm 2 mps 712 mmHg 71%
    18:00 +26°C° 0 mm 2 mps 712 mmHg 77%
    19:00 +24°C° 0 mm 2 mps 712 mmHg 83%
    20:00 +24°C° 0 mm 2 mps 713 mmHg 84%
    21:00 +24°C° 0 mm 2 mps 713 mmHg 86%
    22:00 +23°C° 0 mm 2 mps 713 mmHg 88%
    23:00 +23°C° 0 mm 2 mps 713 mmHg 89%

    Day after tomorrow, 12 December, Wednesday

    Time Temperature Precipitation Wind Pressure Humidity
    00:00 +23°C° 0 mm 2 mps 713 mmHg 89%
    01:00 +23°C° 0 mm 2 mps 712 mmHg 90%
    02:00 +23°C° 0.1 mm 2 mps 712 mmHg 91%
    03:00 +22°C° 0.1 mm 1 mps 712 mmHg 91%
    04:00 +22°C° 0.1 mm 1 mps 712 mmHg 92%
    05:00 +23°C° 0 mm 1 mps 712 mmHg 88%
    06:00 +24°C° 0 mm 1 mps 713 mmHg 85%
    07:00 +24°C° 0 mm 1 mps 713 mmHg 81%
    08:00 +26°C° 0 mm 1 mps 714 mmHg 74%
    09:00 +28°C° 0 mm 2 mps 714 mmHg 66%
    10:00 +30°C° 0 mm 2 mps 714 mmHg 59%
    11:00 +30°C° 0.3 mm 2 mps 713 mmHg 59%
    12:00 +30°C° 0.3 mm 2 mps 713 mmHg 60%
    13:00 +31°C° 0.3 mm 3 mps 712 mmHg 60%
    14:00 +30°C° 0.6 mm 2 mps 711 mmHg 63%
    15:00 +29°C° 0.6 mm 2 mps 711 mmHg 66%
    16:00 +29°C° 0.6 mm 2 mps 710 mmHg 69%
    17:00 +27°C° 0.6 mm 2 mps 711 mmHg 74%
    18:00 +26°C° 0.6 mm 2 mps 711 mmHg 80%
    19:00 +24°C° 0.6 mm 2 mps 711 mmHg 86%
    20:00 +24°C° 0.4 mm 2 mps 712 mmHg 87%
    21:00 +24°C° 0.4 mm 2 mps 712 mmHg 89%
    22:00 +24°C° 0.4 mm 2 mps 712 mmHg 91%
    23:00 +23°C° 0 mm 2 mps 712 mmHg 91%

    13 December, Thursday

    Time Temperature Precipitation Wind Pressure Humidity
    00:00 +23°C° 0 mm 2 mps 712 mmHg 91%
    01:00 +23°C° 0 mm 2 mps 711 mmHg 92%
    02:00 +23°C° 0 mm 2 mps 711 mmHg 92%
    03:00 +23°C° 0 mm 2 mps 711 mmHg 92%
    04:00 +21°C° 0 mm 2 mps 711 mmHg 93%
    05:00 +23°C° 0 mm 2 mps 712 mmHg 89%
    06:00 +24°C° 0 mm 1 mps 712 mmHg 86%
    07:00 +24°C° 0 mm 1 mps 713 mmHg 82%
    08:00 +26°C° 0 mm 2 mps 713 mmHg 74%
    09:00 +28°C° 0 mm 2 mps 714 mmHg 67%
    10:00 +30°C° 0 mm 2 mps 714 mmHg 59%
    11:00 +30°C° 0.2 mm 3 mps 713 mmHg 59%
    12:00 +30°C° 0.2 mm 3 mps 713 mmHg 60%
    13:00 +30°C° 0.2 mm 3 mps 712 mmHg 61%
    14:00 +29°C° 0.2 mm 3 mps 711 mmHg 65%
    15:00 +28°C° 0.2 mm 2 mps 711 mmHg 70%
    16:00 +27°C° 0.2 mm 2 mps 710 mmHg 74%
    17:00 +26°C° 0.1 mm 2 mps 711 mmHg 79%
    18:00 +25°C° 0.1 mm 2 mps 711 mmHg 85%
    19:00 +24°C° 0.1 mm 2 mps 712 mmHg 90%
    20:00 +24°C° 0 mm 2 mps 712 mmHg 90%
    21:00 +23°C° 0 mm 2 mps 712 mmHg 91%
    22:00 +23°C° 0 mm 2 mps 712 mmHg 92%
    23:00 +23°C° 0 mm 2 mps 712 mmHg 92%

    14 December, Friday

    Time Temperature Precipitation Wind Pressure Humidity
    00:00 +23°C° 0 mm 2 mps 712 mmHg 92%
    01:00 +23°C° 0 mm 2 mps 711 mmHg 92%
    02:00 +21°C° 0 mm 2 mps 711 mmHg 92%
    03:00 +21°C° 0 mm 2 mps 711 mmHg 92%
    04:00 +21°C° 0 mm 2 mps 711 mmHg 93%
    05:00 +21°C° 0 mm 2 mps 712 mmHg 90%
    06:00 +23°C° 0 mm 2 mps 713 mmHg 86%
    07:00 +23°C° 0 mm 2 mps 713 mmHg 83%
    08:00 +25°C° 0 mm 2 mps 714 mmHg 74%
    09:00 +27°C° 0 mm 2 mps 714 mmHg 64%
    10:00 +29°C° 0 mm 2 mps 714 mmHg 55%
    11:00 +30°C° 0 mm 2 mps 713 mmHg 54%
    12:00 +30°C° 0 mm 3 mps 713 mmHg 53%
    13:00 +31°C° 0 mm 3 mps 712 mmHg 52%
    14:00 +30°C° 0 mm 3 mps 711 mmHg 56%
    15:00 +29°C° 0 mm 3 mps 711 mmHg 61%
    16:00 +28°C° 0 mm 3 mps 711 mmHg 65%
    17:00 +27°C° 0.1 mm 3 mps 711 mmHg 72%
    18:00 +25°C° 0.1 mm 3 mps 711 mmHg 79%
    19:00 +24°C° 0.1 mm 3 mps 712 mmHg 85%
    20:00 +23°C° 0 mm 2 mps 712 mmHg 86%
    21:00 +23°C° 0 mm 2 mps 712 mmHg 88%
    22:00 +23°C° 0 mm 2 mps 713 mmHg 89%
    23:00 +21°C° 0 mm 2 mps 712 mmHg 90%

    15 December, Saturday

    Time Temperature Precipitation Wind Pressure Humidity
    00:00 +21°C° 0 mm 2 mps 712 mmHg 91%
    01:00 +21°C° 0 mm 2 mps 712 mmHg 91%
    02:00 +21°C° 0 mm 2 mps 712 mmHg 92%
    03:00 +21°C° 0 mm 2 mps 712 mmHg 92%
    04:00 +20°C° 0 mm 2 mps 712 mmHg 92%
    05:00 +21°C° 0 mm 2 mps 713 mmHg 88%
    06:00 +23°C° 0 mm 2 mps 713 mmHg 84%
    07:00 +23°C° 0 mm 2 mps 714 mmHg 80%
    08:00 +25°C° 0 mm 2 mps 714 mmHg 71%
    09:00 +27°C° 0 mm 2 mps 715 mmHg 62%
    10:00 +29°C° 0 mm 3 mps 715 mmHg 54%
    11:00 +29°C° 0 mm 3 mps 714 mmHg 52%
    12:00 +30°C° 0 mm 3 mps 713 mmHg 51%
    13:00 +31°C° 0 mm 3 mps 713 mmHg 50%
    14:00 +30°C° 0 mm 3 mps 712 mmHg 54%
    15:00 +29°C° 0 mm 3 mps 712 mmHg 59%
    16:00 +28°C° 0 mm 3 mps 712 mmHg 63%
    17:00 +27°C° 0 mm 3 mps 712 mmHg 70%
    18:00 +25°C° 0 mm 3 mps 712 mmHg 77%
    19:00 +23°C° 0 mm 2 mps 713 mmHg 84%
    20:00 +23°C° 0 mm 2 mps 713 mmHg 86%
    21:00 +23°C° 0 mm 2 mps 713 mmHg 88%
    22:00 +21°C° 0 mm 2 mps 713 mmHg 89%
    23:00 +21°C° 0 mm 2 mps 713 mmHg 90%
    Show more